Waarnemingen

Advertentie
Mijn weer
Hastveda, Zweden (2629): temperatuur & dauwpunt: 20.04.2018 22:00:00 - 26.04.2018 22:00:00 (CEST)Hastveda, Zweden (2629): windsnelheid & windstoten: 20.04.2018 22:00:00 - 26.04.2018 22:00:00 (CEST)Hastveda, Zweden (2629): windrichting: 20.04.2018 22:00:00 - 26.04.2018 22:00:00 (CEST)Hastveda, Zweden (2629): luchtdruk: 20.04.2018 22:00:00 - 26.04.2018 22:00:00 (CEST)Hastveda, Zweden (2629): zicht: 20.04.2018 22:00:00 - 26.04.2018 22:00:00 (CEST)Hastveda, Zweden (2629): neerslag: 20.04.2018 22:00:00 - 26.04.2018 22:00:00 (CEST)
Datum & Tijd tt [°C] td [°C] ff [km/u] ff [kn] fx [km/u] fx [kn] dd ppp [hPa] vv [km] rr [mm]
26.04.2018 22:00:00 6,3 5,2 11 6 22 12 W 1008,8 17 0,6
26.04.2018 21:00:00 6,5 3,8 7 4 22 12 ZW 1008,5 50 0,0
26.04.2018 20:00:00 7,8 3,5 11 6 25 14 W 1008,1 50 0,0
26.04.2018 19:00:00 9,2 4,0 11 6 36 19 W 1007,5 45 0,0
26.04.2018 18:00:00 9,1 6,4 11 6 22 12 WZW 1007,1 45 0,0
26.04.2018 17:00:00 9,8 5,8 11 6 25 14 ZW 1006,9 45 0,0
26.04.2018 16:00:00 8,8 5,0 14 8 25 14 ZZW 1006,7 40 0,1
26.04.2018 15:00:00 10,4 5,0 11 6 29 16 ZW 1006,1 45 0,0
26.04.2018 14:00:00 11,6 3,9 14 8 32 18 WZW 1005,9 45 0,0
26.04.2018 13:00:00 10,0 4,2 11 6 25 14 W 1006,1 45 0,1
26.04.2018 12:00:00 9,4 4,4 14 8 32 18 W 1006,1 45 0,0
26.04.2018 11:00:00 9,6 5,0 14 8 25 14 WZW 1005,9 45 0,0
26.04.2018 10:00:00 8,3 6,1 11 6 22 12 WZW 1005,6 45 0,0
26.04.2018 09:00:00 6,9 6,5 11 6 18 10 WZW 1005,5 25 0,0
26.04.2018 08:00:00 - - - - - - - - - -
26.04.2018 07:00:00 5,9 5,5 11 6 18 10 WZW 1004,9 14 0,1
26.04.2018 06:00:00 5,5 5,1 7 4 25 14 W 1004,4 16 0,0
26.04.2018 05:00:00 5,9 5,6 11 6 22 12 W 1004,3 12 1,0
26.04.2018 04:00:00 6,1 5,8 4 2 25 14 W 1004,3 2,5 2,0
26.04.2018 03:00:00 6,2 5,6 11 6 22 12 WZW 1004,3 7 0,9
26.04.2018 02:00:00 6,8 5,3 11 6 25 14 WZW 1004,5 35 0,0
26.04.2018 01:00:00 7,3 5,4 11 6 25 14 WZW 1004,5 45 0,0
26.04.2018 00:00:00 6,6 5,1 11 6 25 14 W 1004,4 45 0,0
25.04.2018 23:00:00 6,7 4,7 14 8 25 14 WZW 1004,5 50 0,0
25.04.2018 22:00:00 7,5 4,6 14 8 29 16 WZW 1004,1 50 0,0
25.04.2018 21:00:00 7,9 4,3 14 8 22 12 W 1003,5 50 0,0
25.04.2018 20:00:00 8,7 3,9 11 6 32 18 W 1002,9 45 0,0
25.04.2018 19:00:00 9,4 4,0 14 8 43 23 W 1002,6 45 0,0
25.04.2018 18:00:00 9,3 3,5 22 12 47 25 W 1002,3 45 0,0
25.04.2018 17:00:00 10,9 3,9 22 12 40 21 W 1001,5 45 0,0
25.04.2018 16:00:00 11,0 5,1 22 12 40 21 WNW 1001,1 45 0,0
25.04.2018 15:00:00 9,3 6,2 14 8 22 12 W 1000,9 40 0,0
25.04.2018 14:00:00 7,9 6,5 7 4 14 8 W 1000,7 40 0,1
25.04.2018 13:00:00 8,2 6,2 7 4 14 8 W 1000,4 45 0,1
25.04.2018 12:00:00 7,3 5,9 4 2 7 4 WZW 1000,7 28 0,1
25.04.2018 11:00:00 6,6 6,0 4 2 11 6 Z 1001,0 14 1,0
25.04.2018 10:00:00 6,9 6,5 7 4 11 6 Z 1001,3 6 1,0
25.04.2018 09:00:00 6,9 6,2 7 4 11 6 ZZW 1001,9 10 0,6
25.04.2018 08:00:00 6,8 5,0 7 4 14 8 ZZW 1002,2 19 0,0
25.04.2018 07:00:00 6,2 4,8 7 4 14 8 WZW 1002,5 19 0,0
25.04.2018 06:00:00 5,5 4,1 7 4 14 8 ZW 1002,9 20 0,0
25.04.2018 05:00:00 6,1 4,3 7 4 14 8 WZW 1003,8 21 0,0
25.04.2018 04:00:00 6,1 4,3 11 6 22 12 WZW 1004,1 21 0,0
25.04.2018 03:00:00 6,3 4,1 11 6 29 16 WZW 1004,7 26 0,0
25.04.2018 02:00:00 7,1 4,2 14 8 25 14 WZW 1005,1 30 0,0
25.04.2018 01:00:00 7,1 3,9 11 6 29 16 W 1005,3 35 0,0
25.04.2018 00:00:00 7,3 3,5 14 8 22 12 W 1005,7 40 0,0
24.04.2018 23:00:00 7,2 3,6 11 6 22 12 W 1005,7 35 0,0
24.04.2018 22:00:00 8,3 3,9 14 8 36 19 W 1005,7 35 0,0
24.04.2018 21:00:00 8,9 3,5 18 10 40 21 W 1005,5 40 0,0
24.04.2018 20:00:00 9,7 3,7 22 12 43 23 W 1005,0 40 0,0
24.04.2018 19:00:00 10,3 4,2 22 12 54 29 W 1004,6 40 0,0
24.04.2018 18:00:00 10,9 4,6 32 18 54 29 W 1004,2 45 0,1
24.04.2018 17:00:00 11,4 4,6 32 18 54 29 W 1004,0 30 0,0
24.04.2018 16:00:00 12,5 4,9 25 14 50 27 W 1003,7 40 0,0
24.04.2018 15:00:00 10,6 7,1 22 12 50 27 W 1004,1 30 0,3
24.04.2018 14:00:00 12,8 7,0 25 14 43 23 WZW 1003,6 45 0,0
24.04.2018 13:00:00 11,0 8,2 18 10 36 19 ZW 1004,3 16 0,0
24.04.2018 12:00:00 9,4 7,5 14 8 25 14 ZZW 1005,2 13 0,0
24.04.2018 11:00:00 8,4 7,2 14 8 25 14 ZZW 1005,8 10 0,1
24.04.2018 10:00:00 8,3 6,1 11 6 22 12 ZZW 1006,5 20 0,0
24.04.2018 09:00:00 8,4 5,9 14 8 25 14 ZW 1007,1 45 0,0
24.04.2018 08:00:00 7,5 6,3 11 6 22 12 ZW - 22 0,3
24.04.2018 07:00:00 7,7 5,5 11 6 25 14 WZW 1007,7 27 0,0
24.04.2018 06:00:00 7,6 5,4 11 6 25 14 WZW 1007,9 30 0,0
24.04.2018 05:00:00 7,6 5,2 14 8 25 14 WZW 1007,9 35 0,0
24.04.2018 04:00:00 7,9 5,4 14 8 32 18 WZW 1008,1 40 0,0
24.04.2018 03:00:00 8,3 5,4 18 10 29 16 W 1008,3 40 0,0
24.04.2018 02:00:00 8,6 5,3 18 10 36 19 W 1008,4 45 0,0
24.04.2018 01:00:00 9,1 5,3 18 10 32 18 W 1008,5 45 0,0
24.04.2018 00:00:00 9,1 5,3 14 8 32 18 WZW 1008,1 45 0,0
23.04.2018 23:00:00 8,7 4,7 14 8 29 16 WZW 1008,3 45 0,0
23.04.2018 22:00:00 9,9 4,9 14 8 40 21 WZW 1008,1 45 0,0
23.04.2018 21:00:00 10,6 4,7 18 10 47 25 W 1008,0 45 0,0
23.04.2018 20:00:00 11,8 5,2 18 10 47 25 W 1007,4 45 0,0
23.04.2018 19:00:00 13,1 5,0 22 12 40 21 W 1007,0 45 0,0
23.04.2018 18:00:00 14,3 4,3 22 12 47 25 W 1007,0 45 0,0
23.04.2018 17:00:00 15,0 5,5 25 14 43 23 W 1006,8 45 0,0
23.04.2018 16:00:00 14,1 6,0 22 12 43 23 W 1006,7 45 0,0
23.04.2018 15:00:00 15,4 6,7 25 14 47 25 W 1006,5 45 0,0
23.04.2018 14:00:00 13,9 9,7 18 10 32 18 W 1006,2 23 0,0
23.04.2018 13:00:00 12,0 9,9 18 10 32 18 WZW 1006,1 16 0,0
23.04.2018 12:00:00 11,2 8,9 7 4 14 8 ZW 1005,9 28 0,0
23.04.2018 11:00:00 9,7 8,8 7 4 18 10 ZO 1006,0 20 0,0
23.04.2018 10:00:00 7,5 7,2 11 6 22 12 O 1006,0 11 0,0
23.04.2018 09:00:00 5,7 5,6 11 6 22 12 O 1006,4 7 0,2
23.04.2018 08:00:00 5,3 5,2 14 8 22 12 O 1007,6 9 2,0
23.04.2018 07:00:00 5,1 4,7 14 8 22 12 OZO 1008,0 27 0,3
23.04.2018 06:00:00 4,9 3,2 11 6 18 10 O 1009,1 13 0,5
23.04.2018 05:00:00 4,6 2,1 7 4 22 12 O 1009,9 50 0,0
23.04.2018 04:00:00 4,4 2,7 14 8 22 12 O 1011,0 24 0,0
23.04.2018 03:00:00 4,3 3,6 11 6 25 14 O 1011,8 9 0,0
23.04.2018 02:00:00 4,3 3,4 11 6 22 12 OZO 1013,1 8 0,0
23.04.2018 01:00:00 4,9 3,7 11 6 22 12 OZO 1013,4 9 0,0
23.04.2018 00:00:00 5,1 3,8 11 6 14 8 OZO 1014,2 10 0,0
22.04.2018 23:00:00 6,0 4,0 7 4 22 12 OZO 1014,4 19 0,0
22.04.2018 22:00:00 7,1 4,2 11 6 25 14 OZO 1014,5 30 0,0
22.04.2018 21:00:00 9,5 4,1 11 6 22 12 OZO 1014,1 50 0,0
22.04.2018 20:00:00 11,7 3,7 11 6 18 10 OZO 1013,7 50 0,0
22.04.2018 19:00:00 13,3 3,4 11 6 18 10 OZO 1013,9 50 0,0
22.04.2018 18:00:00 15,9 4,3 11 6 14 8 ZZO 1014,0 45 0,0
22.04.2018 17:00:00 16,2 3,6 7 4 18 10 ZO 1014,4 50 0,0
22.04.2018 16:00:00 16,8 3,1 7 4 18 10 Z 1014,8 45 0,0
22.04.2018 15:00:00 16,8 3,1 7 4 14 8 Z 1015,2 40 0,0
22.04.2018 14:00:00 16,4 3,8 4 2 14 8 OZO 1015,7 45 0,0
22.04.2018 13:00:00 15,2 4,3 4 2 11 6 O 1016,2 40 0,0
22.04.2018 12:00:00 12,2 5,8 4 2 11 6 WZW 1016,8 40 0,0
22.04.2018 11:00:00 9,7 5,7 7 4 14 8 NW 1017,1 35 0,0
22.04.2018 10:00:00 7,8 5,8 7 4 14 8 W 1017,4 28 0,0
22.04.2018 09:00:00 6,4 5,8 7 4 14 8 W 1017,4 17 0,0
22.04.2018 08:00:00 5,4 5,3 7 4 14 8 NW 1017,4 8 0,0
22.04.2018 07:00:00 4,8 4,7 7 4 14 8 WNW 1017,4 3,9 0,0
22.04.2018 06:00:00 4,6 4,5 11 6 18 10 W 1017,3 2,9 0,0
22.04.2018 05:00:00 4,2 4,1 11 6 18 10 W 1017,5 1,7 0,0
22.04.2018 04:00:00 3,3 3,0 11 6 14 8 W 1017,4 12 0,0
22.04.2018 03:00:00 3,7 3,3 11 6 18 10 W 1017,5 19 0,0
22.04.2018 02:00:00 4,2 3,6 11 6 14 8 WNW 1017,8 30 0,0
22.04.2018 01:00:00 4,6 3,4 11 6 14 8 W 1018,0 45 0,0
22.04.2018 00:00:00 5,3 3,1 11 6 14 8 W 1017,9 50 0,0
21.04.2018 23:00:00 6,5 3,3 11 6 18 10 W 1017,6 45 0,0
21.04.2018 22:00:00 7,4 3,3 11 6 22 12 W 1017,7 50 0,0
21.04.2018 21:00:00 9,1 3,3 11 6 29 16 W 1017,9 50 0,0
21.04.2018 20:00:00 10,8 3,6 18 10 40 21 W 1017,5 45 0,0
21.04.2018 19:00:00 12,3 3,0 18 10 50 27 W 1017,4 45 0,0
21.04.2018 18:00:00 13,4 2,6 25 14 43 23 W 1017,4 45 0,0
21.04.2018 17:00:00 14,4 2,9 25 14 43 23 WNW 1017,5 40 0,0
21.04.2018 16:00:00 15,4 3,2 22 12 50 27 W 1017,4 45 0,0
21.04.2018 15:00:00 15,2 3,3 25 14 47 25 W 1017,3 45 0,0
21.04.2018 14:00:00 15,3 3,1 29 16 50 27 WNW 1017,1 45 0,0
21.04.2018 13:00:00 15,1 3,9 25 14 43 23 W 1016,9 35 0,0
21.04.2018 12:00:00 14,4 4,4 25 14 43 23 WNW 1016,8 40 0,0
21.04.2018 11:00:00 13,7 4,6 22 12 43 23 W 1016,4 35 0,0
21.04.2018 10:00:00 12,6 4,8 18 10 40 21 W 1016,0 45 0,0
21.04.2018 09:00:00 11,0 5,3 22 12 43 23 WNW 1015,7 40 0,0
21.04.2018 08:00:00 9,3 5,5 22 12 40 21 W 1015,4 35 0,0
21.04.2018 07:00:00 7,9 5,5 18 10 29 16 W 1015,2 20 0,0
21.04.2018 06:00:00 7,5 5,3 18 10 32 18 W 1014,9 13 0,0
21.04.2018 05:00:00 7,8 6,1 18 10 29 16 W 1014,8 8 0,0
21.04.2018 04:00:00 8,5 6,6 14 8 25 14 W 1014,6 8 0,0
21.04.2018 03:00:00 10,0 7,2 14 8 36 19 W 1014,4 9 0,0
21.04.2018 02:00:00 11,3 7,8 18 10 36 19 W 1014,2 11 0,0
21.04.2018 01:00:00 12,6 8,5 18 10 40 21 W 1014,1 11 0,0
21.04.2018 00:00:00 13,7 8,7 18 10 32 18 W 1013,9 9 0,0
20.04.2018 23:00:00 16,0 9,2 14 8 36 19 W 1013,5 12 0,0
20.04.2018 22:00:00 18,0 10,9 18 10 29 16 W 1013,4 13 0,0

tt = temperatuur
td = dauwpunt
ff = windsnelheid
fx = windstoten
dd = windrichting
ppp = luchtdruk
vv = zicht
rr = neerslag

Weerstations in de omgeving